Location: Camp Cheerful - Strongsville
(41.3172°N, 81.8018°W)
Time: 02:54:18
(UTC-04:00)

Hubble Space Telescope - Visible Passes

Search period start: 21 October 2017 00:00
Search period end: 31 October 2017 00:00
Orbit: 537 x 541 km, 28.5° (Epoch: 20 October)

Date Brightness Start Highest point End Pass type
(mag) Time Alt. Az. Time Alt. Az. Time Alt. Az.
22 Oct 3.1 20:08:18 10° S 20:09:32 11° S 20:10:06 11° SSE visible
23 Oct 3.1 19:57:33 10° SSW 19:59:13 12° S 20:00:30 11° SSE visible
24 Oct 3.1 19:46:59 10° SSW 19:48:53 13° S 19:50:48 10° SSE visible
25 Oct 3.1 19:36:31 10° SSW 19:38:34 13° S 19:40:37 10° SSE visible
26 Oct 3.2 19:26:08 10° SSW 19:28:15 14° S 19:30:21 10° SSE visible
27 Oct 3.2 19:15:51 10° SSW 19:17:56 14° S 19:20:00 10° SSE visible
28 Oct 3.3 19:05:38 10° SSW 19:07:37 13° S 19:09:35 10° SSE visible
29 Oct 3.4 18:55:30 10° SSW 18:57:17 12° S 18:59:03 10° SSE visible
